Total_Precipitation_Accumulation
0.91 0.89 0.73 0.52 0.47 0.39 0.39 0.33 0.35 0.24 0.27 0.20 0.18 0.15 0.19 0.31 0.58 0.85 0.94 0.67 0.66 0.72 0.66 0.62 0.48 0.35 0.35 0.28 0.22 0.20 0.16 0.15 0.17 0.21 0.11 0.09 0.09 0.08 0.07 0.05 0.03 0.03 0.02
0.82 0.86 0.75 0.62 0.64 0.46 0.36 0.35 0.24 0.18 0.19 0.17 0.08 0.11 0.09 0.15 0.34 0.95 1.23 1.11 0.68 0.61 0.72 0.73 0.73 0.53 0.41 0.38 0.33 0.30 0.23 0.19 0.15 0.17 0.17 0.12 0.09 0.07 0.12 0.15 0.16 0.11 0.02
1.11 0.95 0.78 0.63 0.62 0.53 0.47 0.39 0.33 0.16 0.08 0.10 0.06 0.06 0.06 0.06 0.12 0.38 0.77 0.99 0.83 0.67 0.66 0.77 0.71 0.65 0.56 0.45 0.38 0.36 0.31 0.26 0.30 0.22 0.18 0.11 0.09 0.09 0.19 0.27 0.19 0.07 0.01
1.18 1.19 1.06 0.98 0.84 0.60 0.51 0.48 0.39 0.32 0.09 0.08 0.07 0.09 0.07 0.04 0.14 0.23 0.30 0.50 0.72 0.79 0.78 0.81 0.85 0.75 0.57 0.44 0.38 0.37 0.39 0.39 0.31 0.25 0.21 0.18 0.15 0.15 0.18 0.13 0.08 0.06 0.07
1.15 1.65 1.55 1.18 1.10 1.19 1.26 0.99 0.44 0.40 0.20 0.10 0.06 0.04 0.07 0.03 0.05 0.11 0.21 0.30 0.52 0.74 0.80 0.82 0.68 0.77 0.76 0.72 0.57 0.47 0.42 0.40 0.41 0.38 0.34 0.32 0.29 0.29 0.31 0.31 0.34 0.28 0.33
0.60 0.98 1.40 1.79 1.07 1.07 1.31 1.41 0.90 0.49 0.38 0.13 0.09 0.07 0.06 0.04 0.11 0.10 0.12 0.15 0.20 0.33 0.46 0.58 0.76 0.77 0.75 0.84 0.89 0.85 0.73 0.60 0.51 0.41 0.36 0.34 0.31 0.26 0.28 0.32 0.33 0.32 0.33
0.46 0.86 1.02 1.29 1.67 1.20 1.28 1.43 1.63 1.16 0.78 0.57 0.23 0.11 0.08 0.06 0.12 0.11 0.14 0.08 0.13 0.10 0.16 0.29 0.43 0.83 0.90 0.70 0.84 0.87 0.94 0.99 0.77 0.62 0.48 0.38 0.33 0.35 0.39 0.42 0.40 0.41 0.40
0.45 0.60 0.74 0.69 1.17 1.45 1.06 1.01 1.09 1.21 1.21 1.01 0.49 0.22 0.10 0.09 0.14 0.15 0.18 0.05 0.12 0.16 0.12 0.12 0.19 0.33 0.73 0.82 0.75 0.91 0.97 0.95 1.03 0.82 0.69 0.69 0.56 0.48 0.41 0.34 0.34 0.37 0.43
0.53 0.71 0.85 0.91 0.93 1.03 1.27 1.08 1.08 0.96 0.94 1.00 0.88 0.54 0.30 0.18 0.24 0.21 0.17 0.03 0.05 0.10 0.15 0.17 0.15 0.10 0.28 0.42 0.38 0.47 0.62 0.79 0.87 0.85 0.74 0.63 0.65 0.67 0.58 0.44 0.42 0.34 0.35
0.49 0.60 0.71 0.87 1.02 1.18 1.37 1.49 1.44 1.35 1.10 0.94 0.87 0.72 0.61 0.32 0.33 0.26 0.20 0.07 0.11 0.08 0.08 0.15 0.26 0.19 0.24 0.18 0.15 0.20 0.27 0.39 0.51 0.56 0.51 0.51 0.47 0.47 0.49 0.37 0.37 0.35 0.31
0.56 0.58 0.61 0.69 0.85 0.97 1.06 1.27 1.54 1.71 1.65 1.32 1.16 0.99 0.75 0.64 0.48 0.37 0.33 0.20 0.22 0.19 0.17 0.17 0.21 0.24 0.17 0.18 0.17 0.14 0.25 0.22 0.25 0.23 0.27 0.30 0.30 0.29 0.31 0.31 0.26 0.22 0.22
0.59 0.54 0.62 0.62 0.71 0.88 0.96 0.98 0.97 1.12 1.40 1.59 1.42 1.31 1.23 1.13 0.97 0.78 0.56 0.42 0.34 0.23 0.26 0.20 0.27 0.24 0.19 0.17 0.15 0.23 0.20 0.11 0.05 0.10 0.12 0.13 0.14 0.17 0.23 0.26 0.27 0.25 0.18
0.57 0.63 0.58 0.57 0.57 0.53 0.56 0.68 0.80 0.85 0.80 0.82 0.90 1.00 1.08 1.11 1.12 1.04 0.95 0.80 0.64 0.47 0.47 0.47 0.38 0.22 0.14 0.14 0.16 0.11 0.05 0.02 0.03 0.04 0.06 0.10 0.13 0.14 0.13 0.14 0.15 0.19 0.19
0.11 0.15 0.20 0.25 0.28 0.29 0.31 0.34 0.37 0.46 0.54 0.62 0.64 0.63 0.64 0.61 0.61 0.62 0.59 0.59 0.56 0.53 0.52 0.46 0.37 0.28 0.22 0.20 0.14 0.13 0.11 0.09 0.08 0.09 0.12 0.12 0.11 0.10 0.11 0.11 0.11 0.13 0.16
0.03 0.05 0.07 0.10 0.12 0.15 0.16 0.18 0.18 0.24 0.21 0.24 0.31 0.34 0.38 0.44 0.53 0.47 0.41 0.38 0.37 0.38 0.38 0.39 0.39 0.36 0.33 0.31 0.28 0.26 0.22 0.18 0.17 0.18 0.16 0.15 0.13 0.10 0.09 0.07 0.06 0.06 0.07
0.01 0.01 0.01 0.01 0.02 0.03 0.03 0.06 0.07 0.09 0.06 0.05 0.07 0.08 0.12 0.14 0.13 0.12 0.12 0.12 0.12 0.12 0.11 0.14 0.16 0.17 0.17 0.16 0.15 0.14 0.13 0.12 0.11 0.09 0.07 0.06 0.06 0.06 0.05 0.04 0.03 0.02 0.03
0.01 0.01 0.01 0.01 0.01 0.02 0.01 0.00 0.02 0.03 0.02 0.03 0.02 0.02 0.02 0.01 0.00 0.00 0.00 0.00 0.00 0.00 0.01 0.02 0.03 0.03 0.03 0.03 0.03 0.04 0.05 0.05 0.04 0.04 0.03 0.03 0.02 0.02 0.02 0.01 0.01 0.00 0.00
0.00 0.00 0.00 0.01 0.01 0.01 0.01 0.01 0.02 0.02 0.01 0.01 0.02 0.01 0.00 0.00 0.00 0.00 0.00 0.00 0.00 0.00 0.00 0.00 0.00 0.00 0.00 0.00 0.00 0.00 0.00 0.00 0.00 0.00 0.00 0.00 0.00 0.00 0.00 0.00 0.00 0.00 0.00
0.00 0.01 0.01 0.00 0.00 0.00 0.00 0.00 0.00 0.00 0.00 0.01 0.01 0.00 0.00 0.00 0.00 0.00 0.00 0.00 0.00 0.00 0.00 0.00 0.00 0.00 0.00 0.00 0.00 0.00 0.00 0.00 0.00 0.00 0.00 0.00 0.00 0.00 0.00 0.00 0.00 0.00 0.00
0.00 0.00 0.00 0.00 0.00 0.00 0.00 0.00 0.00 0.00 0.00 0.00 0.00 0.00 0.00 0.00 0.00 0.00 0.00 0.00 0.00 0.00 0.00 0.00 0.00 0.00 0.00 0.00 0.00 0.00 0.00 0.00 0.00 0.00 0.00 0.00 0.00 0.00 0.00 0.00 0.00 0.00 0.00
0.00 0.00 0.00 0.00 0.00 0.00 0.00 0.00 0.00 0.00 0.00 0.00 0.00 0.00 0.00 0.00 0.00 0.00 0.00 0.00 0.00 0.00 0.01 0.00 0.00 0.00 0.00 0.00 0.00 0.00 0.00 0.00 0.00 0.00 0.00 0.00 0.00 0.00 0.00 0.00 0.00 0.00 0.00
0.00 0.00 0.00 0.00 0.00 0.00 0.00 0.00 0.00 0.00 0.00 0.00 0.00 0.00 0.00 0.00 0.00 0.00 0.00 0.01 0.01 0.00 0.00 0.01 0.00 0.00 0.00 0.00 0.00 0.00 0.00 0.00 0.00 0.00 0.00 0.00 0.00 0.00 0.00 0.00 0.00 0.00 0.00
0.00 0.00 0.00 0.00 0.00 0.00 0.00 0.00 0.01 0.01 0.01 0.01 0.01 0.01 0.01 0.01 0.01 0.00 0.01 0.01 0.01 0.01 0.01 0.00 0.00 0.00 0.00 0.00 0.00 0.00 0.00 0.00 0.00 0.00 0.00 0.00 0.00 0.00 0.00 0.00 0.00 0.00 0.00
0.00 0.00 0.00 0.00 0.00 0.01 0.01 0.02 0.01 0.01 0.01 0.01 0.02 0.01 0.01 0.01 0.02 0.01 0.01 0.01 0.01 0.01 0.00 0.00 0.00 0.00 0.00 0.00 0.00 0.00 0.00 0.00 0.00 0.00 0.00 0.00 0.00 0.00 0.00 0.00 0.00 0.00 0.00
0.00 0.00 0.00 0.01 0.02 0.02 0.02 0.02 0.03 0.03 0.03 0.03 0.02 0.02 0.02 0.02 0.02 0.02 0.01 0.01 0.01 0.01 0.00 0.00 0.00 0.00 0.00 0.00 0.00 0.00 0.00 0.00 0.00 0.00 0.00 0.00 0.00 0.01 0.00 0.00 0.00 0.00 0.00
0.00 0.01 0.01 0.01 0.02 0.02 0.03 0.03 0.03 0.03 0.03 0.03 0.03 0.03 0.03 0.02 0.02 0.02 0.02 0.01 0.01 0.01 0.01 0.01 0.01 0.00 0.00 0.00 0.00 0.00 0.00 0.00 0.00 0.00 0.00 0.00 0.00 0.00 0.00 0.00 0.00 0.00 0.00